LATEST WEATHER OBSERVATIONS RECORDED AT FUA'AMOTU AIRPORT
DATE TIME CLOUD WIND KT TEMP
(C)
DewPoint
(C)
RH(%) WEATHER MSL PRESS.
(MB)
19.03.2019 08:00PM PARTLY CLOUDY SE 4 25 23.3 90.31036 NIL 1011.7
19.03.2019 02:00PM FINE SW 8 28.6 24.8 79.97579 NIL 1010.3
19.03.2019 01:00PM PARTLY CLOUDY SE 7 28.1 24.2 79.43068 NIL 1011.1
19.03.2019 12:00PM PARTLY CLOUDY SE 6 27.5 23.9 80.79156 NIL 1011.6
19.03.2019 11:00AM FINE SE 6 28.1 24.5 80.86997 NIL 1011.7
19.03.2019 10:00AM FINE SE 7 27.2 24.2 83.71555 NIL 1010.7
19.03.2019 09:00AM FINE SE 6 26.5 23.3 82.63352 NIL 1011.5
18.03.2019 08:00AM FINE SE 3 24.2 22.9 92.46908 NIL 1011.2
18.03.2019 06:00AM FINE SE 3 23.2 22.6 96.43344 NIL 1010.3
18.03.2019 05:00AM FINE SE 4 23.6 22.7 94.70804 NIL 1010
18.03.2019 04:00AM FINE S 5 24.1 22.9 93.0251 NIL 1009.9
18.03.2019 03:00AM FINE SE 4 23.7 22.7 94.13979 NIL 1010.2
18.03.2019 02:00AM FINE SE 5 24.1 22.8 92.46352 NIL 1010.5
18.03.2019 01:00AM FINE SE 5 24.5 23.2 92.4857 NIL 1011
18.03.2019 12:00PM PARTLY CLOUDY SE 6 25 23.4 90.85676 NIL 1011.1
18.03.2019 11:00PM PARTLY CLOUDY SE 5 25 23.4 90.85676 NIL 1011.2
18.03.2019 10:00PM FINE SE 6 25.1 23.4 90.3174 NIL 1011
18.03.2019 09:00PM FINE SE 6 24.9 23.1 89.75942 NIL 1010.8
18.03.2019 08:00PM FINE SE 5 25.3 23.1 87.64774 NIL 1010.5
18.03.2019 07:00PM FINE SE 6 25.9 23.4 86.13024 NIL 1009.9
18.03.2019 06:00PM PARTLY CLOUDY SE 8 27.2 24 82.71739 NIL 1009.4
18.03.2019 05:00PM PARTLY CLOUDY SE 10 27.9 24.5 81.81718 NIL 1009.2
18.03.2019 04:00PM CLOUDY SE 6 29 25 79.08285 NIL 1009
18.03.2019 03:00PM CLOUDY SE 8 26.8 23.8 83.67019 RECENT THUNDERSTORM 1009.6